Weather in Pantelleria

Italy     36°49′49″N   11°56′33″E
temp.,
°C
wind,
m/s
gust,
m/s
humid.,
%
clouds,
%
prec.,
mm/h
press.,
hPa
HPBL,
m
27 september, mon
mon2723:00+25s3479100 0.0 1020198
02:00+25sse568184 0.0 1018291
05:00+25sse468138 0.0 1018301
08:00+25s3682100 0.0 1018377
11:00+25sw358294 0.0 1019379
14:00+25w4580100 0.0 1018443
17:00+26nw3780100 0.0 1018584
20:00+25nw358469 0.0 1018344
28 september, tue
tue2823:00+25nw4986100 0.0 1018553
02:00+24nw71079100 0.0 1018629
05:00+24nw10107891 0.0 1017634
08:00+24nw5783100 0.0 1018643
11:00+24nnw66755 0.0 1019704
14:00+24nnw56755 0.0 1018743
17:00+24nw57778 0.0 1017786
20:00+24nnw57721 0.0 1018660
29 september, wed
wed2923:00+24nnw57755 0.0 1019514
02:00+24nnw577478 0.0 1018627
05:00+23nnw67765 0.0 1018667
08:00+23nnw467310 0.0 1019703
11:00+24nw56775 0.0 1020722
14:00+24nw78765 0.0 1019712
17:00+24nw1011755 0.0 1019699
20:00+24nw610750 0.0 1019812
30 september, thu
thu3023:00+24nnw79750 0.0 1020676
02:00+24nw68770 0.0 1020734
05:00+24nw99770 0.0 1019721
08:00+24nw911730 0.0 1019701
11:00+24nw79671 0.0 1021853
14:00+24nw89655 0.0 10201018
17:00+23nw8106751 0.0 10191082
20:00+23nw8106364 0.0 10201119
1 october, fri
fri123:00+23nw68640 0.0 10201101
02:00+23nnw67685 0.0 10191104
05:00+23nnw99723 0.1 10191109
08:00+23nnw887210 0.1 1019965
11:00+23nnw677587 0.0 1019892
14:00+23nnw667194 0.0 1018886
17:00+23nnw7771100 0.0 1018775
20:00+23n887343 0.0 1018749